This is the latest recevied weather packets stored in our database for station/object W0VI. If no packets are shown the sender has not sent any weather packets the latest 10 day(s).
| Time | Temp. | Humidity | Pressure | Rain* | Wind** | Luminosity | Snow |
|---|---|---|---|---|---|---|---|
| 1777499228 | 11.11° C | 44% | 1016.8 hPa | 0 mm | - | 181 W/m² | - |
| 1777498924 | 10.56° C | 45% | 1016.8 hPa | 0 mm | - | 463 W/m² | - |
| 1777498620 | 10.56° C | 46% | 1016.7 hPa | 0 mm | - | 177 W/m² | - |
| 1777498316 | 10.56° C | 43% | 1016.9 hPa | 0 mm | - | 121 W/m² | - |
| 1777498015 | 10.56° C | 43% | 1016.8 hPa | 0 mm | - | 78 W/m² | - |
| 1777497711 | 10.56° C | 44% | 1016.9 hPa | 0 mm | - | 66 W/m² | - |
| 1777497408 | 10.56° C | 44% | 1016.8 hPa | 0 mm | - | 62 W/m² | - |
| 1777497103 | 10.56° C | 44% | 1017 hPa | 0 mm | - | 78 W/m² | - |
| 1777496801 | 10.56° C | 45% | 1016.8 hPa | 0 mm | - | 111 W/m² | - |
| 1777496497 | 11.11° C | 43% | 1017.1 hPa | 0 mm | - | 123 W/m² | - |
| 1777496193 | 11.11° C | 42% | 1017 hPa | 0 mm | - | 162 W/m² | - |
| 1777495890 | 11.11° C | 44% | 1017.2 hPa | 0 mm | - | 250 W/m² | - |
| 1777495586 | 10.56° C | 43% | 1017.2 hPa | 0 mm | - | 245 W/m² | - |
| 1777495281 | 10.56° C | 44% | 1017.3 hPa | 0 mm | - | 231 W/m² | - |
| 1777494980 | 10.56° C | 45% | 1017.2 hPa | 0 mm | - | 232 W/m² | - |
| 1777494676 | 10.56° C | 43% | 1017.5 hPa | 0 mm | - | 210 W/m² | - |
| 1777494373 | 10.56° C | 43% | 1017.4 hPa | 0 mm | - | 172 W/m² | - |
| 1777494070 | 10.56° C | 43% | 1017.5 hPa | 0 mm | - | 200 W/m² | - |
| 1777493768 | 11.11° C | 42% | 1017.5 hPa | 0 mm | - | 266 W/m² | - |
| 1777493466 | 11.11° C | 43% | 1017.5 hPa | 0 mm | - | 298 W/m² | - |
| 1777493161 | 10.56° C | 43% | 1017.5 hPa | 0 mm | - | 295 W/m² | - |
| 1777492858 | 11.11° C | 42% | 1017.6 hPa | 0 mm | - | 247 W/m² | - |
| 1777492555 | 10.56° C | 42% | 1017.7 hPa | 0 mm | - | 350 W/m² | - |
| 1777492251 | 10.56° C | 42% | 1017.8 hPa | 0 mm | - | 381 W/m² | - |
| 1777491948 | 10.56° C | 43% | 1017.8 hPa | 0 mm | - | 180 W/m² | - |
* Rain latest hour (hover to see other rain measurements)
** Current wind speed in m/s (hover to see current wind gust speed)